星链-30884 (STARLINK-30884 )

导读

STARLINK-30884是美国太空探索技术公司(SpaceX)星链(Starlink)星座组网中的一颗低轨通信卫星,于2023年11月18日发射升空。卫星运行于近地轨道,采用标准化设计,具备自动空间碎片规避能力,为全球用户提供低延迟高速宽带接入服务,补充完善了星链全球网络覆盖,尤其助力偏远地区连通互联网,提升了星座系统运行的稳定性。

Basic Information
目录编号:
58372
目录名称:
STARLINK-30884
国际标识:
2023-177X
轨道中心:
EARTH
卫星名称:
星链-30884
卫星全名:
星链-30884 (STARLINK-30884 )
卫星状态:
在轨 (已飞行942 天)
发射日期:
2023-11-18 UTC
国别 :
美国 (US)
星等 :
--
Orbit Information
数据来源 国际轨道数据 AOE轨道数据
星历时间 2026-06-17T13:05:43+0800
9小时前
查看轨道信息
2026-06-14T08:00:00+0800
3天前
查看轨道信息
半长轴 6861.211km 6861.159km
偏心率 0.0001517 0.0001791
轨道倾角 43.004° 42.991°
近地点辐角 251.810° 153.665°
升交点赤经 148.931° 167.065°
平近点角 108.258° 160.365°
近地点 482.033km 481.793km
远地点 484.115km 484.251km
周期 94.267分钟 94.266分钟
每日圈数 15.275718 15.275891
Detailed Information
固有亮度:
5
最大亮度:
0.3
卫星平台:
Starlink v2.0 mini
覆盖范围:
全球
运营商:
太空探索技术公司
运营商所在国:
美国
制造商(研发单位):
太空探索技术公司
制造商所在国:
美国
使用方式:
暂无
Satellite Introduction
星链(Starlink)计划是由太空探索技术公司(SpaceX)提出的一个巨型低轨卫星互联网星座项目,计划在2019年至2024年间在太空搭建由约1.2万颗卫星组成的“星链”网络,其中1584颗将部署在地球上空550千米处的近地轨道,并从2020年开始工作。该卫星仍在工作。
2D Orbit Map
3D Orbit Map
Orbit Altitude Analysis Chart
Orbit Inclination Analysis Chart
Orbit Comprehensive Analysis Chart
View Comprehensive Chart